Flag for Italy Weather past 2 weeks in Bologna, Italy

Now
41 °F

Fog.


Feels Like: 36 °F
Forecast: 30 / 42 °F
Wind: 8 mph from Northwest

Location: Bologna / Borgo Panigale

Current Time: Dec 26, 2014 at 9:42:42 AM

Latest Report: Dec 26, 2014 at 7:50 AM


Visibility: 1 mi

Pressure: 30.21 "Hg

Humidity: 100%

Dew point: 41 °F

Location of BolognaLocation

Historic Weather in Bologna — Graph

°F

Bologna temperature yesterday

Maximum temperature yesterday: 50 °F (at 11:50 AM)
Minimum temperature yesterday: 34 °F (at 12:50 AM)
Average temperature yesterday: 42 °F

Past Weeks' High & Low Weather Summary

 TemperatureHumidityPressure
High54 °F (Dec 17, 11:50 AM)100% (Dec 13, 1:20 AM)30.48 "Hg (Dec 13, 1:20 AM)
Low34 °F (Dec 11, 7:50 AM)62% (Dec 11, 12:50 PM)29.80 "Hg (Dec 16, 4:20 PM)
Average42 °F94%30.18 "Hg
* Reported Dec 11 7:20 AM — Dec 26 7:50 AM, Bologna, Weather by CustomWeather, © 2014

Note: Actual official high and low records may vary slightly from our data, if they occured in-between our weather recording intervals... More about our weather records

Advertising

Bologna weather history for previous 24 hours

 ConditionsComfort  
Time TempWeatherWind HumidityBarometerVisibility
7:50 AM
Dec 26
41 °FFog.8 mph100%30.21 "Hg1 mi
7:20 AM41 °FFog.8 mph100%30.21 "Hg0 mi
6:50 AM41 °FFog.8 mph93%30.18 "Hg0 mi
6:20 AM41 °FFog.8 mph93%30.18 "Hg0 mi
5:50 AM41 °FFog.7 mph93%30.18 "Hg0 mi
5:20 AM41 °FFog.6 mph93%30.18 "Hg1 mi
4:50 AM41 °FFog.7 mph93%30.15 "Hg1 mi
4:20 AM41 °FFog.7 mph93%30.15 "Hg1 mi
3:50 AM39 °FFog.5 mph100%30.15 "Hg1 mi
3:20 AM39 °FFog.6 mph100%30.12 "Hg1 mi
2:50 AM41 °FFog.6 mph93%30.12 "Hg1 mi
2:20 AM41 °FFog.5 mph93%30.15 "Hg1 mi
1:50 AM41 °FFog.6 mph93%30.12 "Hg1 mi
1:20 AM39 °FFog.2 mph100%30.12 "Hg1 mi
12:50 AM39 °FFog.2 mph100%30.12 "Hg1 mi
12:20 AM39 °FFog.5 mph100%30.12 "Hg0 mi
11:50 PM
Dec 25
41 °FFog.5 mph93%30.12 "Hg0 mi
11:20 PM41 °FFog.6 mph93%30.12 "Hg0 mi
10:50 PM39 °FFog.5 mph100%30.12 "Hg0 mi
10:20 PM39 °FFog.3 mph100%30.12 "Hg0 mi
9:50 PM39 °FFog.2 mph100%30.12 "Hg0 mi
9:20 PM39 °FChilly.5 mph93%30.12 "Hg1 mi
8:50 PM39 °FSleet. Passing clouds.5 mph100%30.12 "Hg1 mi
8:20 PM43 °FFog.3 mph100%30.12 "Hg0 mi
7:20 PM41 °FFog.3 mph100%30.12 "Hg1 mi
6:50 PM41 °FFog.3 mph100%30.12 "Hg1 mi
6:20 PM41 °FFog.3 mph100%30.12 "Hg1 mi
5:50 PM43 °FFog.3 mph100%30.12 "Hg2 mi
5:20 PM41 °FFog.3 mph100%30.12 "Hg2 mi
4:50 PM46 °FFog.2 mph93%30.12 "Hg3 mi
4:20 PM48 °FClear.2 mph87%30.12 "Hg4 mi
3:50 PM48 °FClear.3 mph87%30.15 "Hg4 mi
3:20 PM50 °FClear.3 mph82%30.15 "Hg5 mi
2:50 PM50 °FClear.3 mph82%30.15 "Hg5 mi
2:20 PM50 °FClear.3 mph82%30.15 "Hg5 mi
1:50 PM50 °FClear.5 mph82%30.15 "Hg5 mi
1:20 PM50 °FClear.3 mph82%30.15 "Hg5 mi
12:50 PM50 °FClear.5 mph82%30.18 "Hg5 mi
12:20 PM48 °FClear.6 mph82%30.18 "Hg5 mi
11:50 AM50 °FClear.6 mph82%30.21 "Hg5 mi
11:20 AM48 °FClear.6 mph87%30.21 "Hg5 mi
10:50 AM46 °FClear.6 mph100%30.24 "Hg5 mi
10:20 AM45 °FClear.3 mph100%30.24 "Hg5 mi
9:50 AM43 °FClear.5 mph100%30.24 "Hg5 mi
9:20 AM41 °FClear.5 mph100%30.24 "Hg4 mi
Weather by CustomWeather, © 2014

See weather overviewHow to use our weather pages